Location: Ay?beleni
(36.6500°N, 30.3000°E)
Time: 04:09:10
(UTC+00:00)

Iridium 4 Rocket - Pass Details

Date: 16 October 2021
Orbit: 586 x 903 km, 86.9° (Epoch: 08 December)

Event Time Altitude Azimuth Distance (km) Brightness Sun altitude
Rises 16:08:36 0° 13° (NNE) 2,906 6.3 -10.3°
Reaches altitude 10° 16:11:04 10° 26° (NNE) 2,034 5.4 -10.8°
Maximum altitude 16:14:50 26° 83° (E) 1,315 4.1 -11.5°
Drops below altitude 10° 16:18:49 10° 140° (SE) 2,171 5.5 -12.3°
Sets 16:21:32 0° 153° (SSE) 3,146 6.4 -12.9°
